QPF
0.00 0.00 0.00 0.00 0.00 0.00 0.00 0.00 0.00 0.01 0.01 0.02 0.01 0.01 0.02 0.03 0.04 0.05 0.07 0.09 0.11 0.14 0.14 0.12 0.11 0.11 0.10 0.10 0.12 0.12 0.11 0.09 0.08 0.08 0.10 0.12 0.13 0.13 0.14 0.16 0.17 0.19 0.20 0.21
0.00 0.00 0.00 0.00 0.00 0.00 0.00 0.00 0.00 0.00 0.00 0.00 0.00 0.00 0.01 0.01 0.02 0.02 0.02 0.03 0.03 0.04 0.05 0.05 0.05 0.05 0.04 0.03 0.03 0.04 0.04 0.04 0.04 0.05 0.05 0.04 0.05 0.05 0.05 0.07 0.10 0.13 0.12 0.12
0.00 0.00 0.00 0.00 0.00 0.00 0.00 0.00 0.00 0.00 0.00 0.00 0.00 0.00 0.00 0.01 0.01 0.01 0.01 0.01 0.01 0.00 0.00 0.00 0.00 0.00 0.00 0.00 0.00 0.00 0.00 0.01 0.01 0.02 0.02 0.02 0.02 0.02 0.02 0.03 0.05 0.05 0.05 0.05
0.00 0.00 0.00 0.00 0.00 0.00 0.00 0.00 0.00 0.00 0.00 0.00 0.00 0.00 0.00 0.00 0.00 0.00 0.00 0.00 0.00 0.00 0.00 0.00 0.00 0.00 0.00 0.00 0.00 0.00 0.00 0.00 0.00 0.00 0.00 0.01 0.00 0.00 0.00 0.01 0.01 0.01 0.02 0.03
0.00 0.00 0.00 0.00 0.00 0.00 0.00 0.00 0.00 0.00 0.00 0.00 0.00 0.00 0.00 0.00 0.00 0.00 0.00 0.00 0.00 0.00 0.00 0.00 0.00 0.00 0.00 0.00 0.00 0.00 0.00 0.00 0.00 0.00 0.00 0.00 0.00 0.00 0.00 0.00 0.00 0.00 0.00 0.01
0.00 0.00 0.00 0.00 0.00 0.00 0.00 0.00 0.00 0.00 0.00 0.00 0.00 0.00 0.00 0.00 0.00 0.00 0.00 0.00 0.00 0.00 0.00 0.00 0.00 0.00 0.00 0.00 0.00 0.00 0.00 0.00 0.00 0.00 0.00 0.00 0.00 0.00 0.00 0.00 0.00 0.00 0.00 0.00
0.00 0.00 0.00 0.00 0.00 0.00 0.00 0.00 0.00 0.00 0.00 0.00 0.00 0.00 0.00 0.00 0.00 0.00 0.00 0.00 0.00 0.00 0.00 0.00 0.00 0.00 0.00 0.00 0.00 0.00 0.00 0.00 0.00 0.00 0.00 0.00 0.00 0.00 0.00 0.00 0.00 0.00 0.00 0.00
0.00 0.00 0.00 0.00 0.00 0.00 0.00 0.00 0.00 0.00 0.00 0.00 0.00 0.00 0.00 0.00 0.00 0.00 0.00 0.00 0.00 0.00 0.00 0.00 0.00 0.00 0.00 0.00 0.00 0.00 0.00 0.00 0.00 0.00 0.00 0.00 0.00 0.00 0.00 0.00 0.00 0.00 0.00 0.00
0.00 0.00 0.00 0.00 0.00 0.00 0.00 0.00 0.00 0.00 0.00 0.00 0.00 0.00 0.00 0.00 0.00 0.00 0.00 0.00 0.00 0.00 0.00 0.00 0.00 0.00 0.00 0.00 0.00 0.00 0.00 0.00 0.00 0.00 0.00 0.00 0.00 0.00 0.00 0.00 0.00 0.00 0.00 0.00
0.00 0.00 0.00 0.00 0.00 0.00 0.00 0.00 0.00 0.00 0.00 0.00 0.00 0.00 0.00 0.00 0.00 0.00 0.00 0.00 0.00 0.00 0.00 0.00 0.00 0.00 0.00 0.00 0.00 0.00 0.00 0.00 0.00 0.00 0.00 0.00 0.00 0.00 0.00 0.00 0.00 0.00 0.00 0.00
0.00 0.00 0.00 0.00 0.00 0.00 0.00 0.00 0.00 0.00 0.00 0.00 0.00 0.00 0.00 0.00 0.00 0.00 0.00 0.00 0.00 0.00 0.00 0.00 0.00 0.00 0.00 0.00 0.00 0.00 0.00 0.00 0.00 0.00 0.00 0.00 0.00 0.00 0.00 0.00 0.00 0.00 0.00 0.00
0.00 0.00 0.00 0.00 0.00 0.00 0.00 0.00 0.00 0.00 0.00 0.00 0.00 0.00 0.00 0.00 0.00 0.00 0.00 0.00 0.00 0.00 0.00 0.00 0.00 0.00 0.00 0.00 0.00 0.00 0.00 0.00 0.00 0.00 0.00 0.00 0.00 0.00 0.00 0.00 0.00 0.00 0.00 0.00
0.00 0.00 0.00 0.00 0.00 0.00 0.00 0.00 0.00 0.00 0.00 0.00 0.00 0.00 0.00 0.00 0.00 0.00 0.00 0.00 0.00 0.00 0.00 0.00 0.00 0.00 0.00 0.00 0.00 0.00 0.00 0.00 0.00 0.00 0.00 0.00 0.00 0.00 0.00 0.00 0.00 0.00 0.00 0.00
0.00 0.00 0.00 0.00 0.00 0.00 0.00 0.00 0.00 0.00 0.00 0.00 0.00 0.00 0.00 0.00 0.00 0.00 0.00 0.00 0.00 0.00 0.00 0.00 0.00 0.00 0.00 0.00 0.00 0.00 0.00 0.00 0.00 0.00 0.00 0.00 0.00 0.00 0.00 0.00 0.00 0.00 0.00 0.00
0.00 0.00 0.00 0.00 0.00 0.00 0.00 0.00 0.00 0.00 0.00 0.00 0.00 0.00 0.00 0.00 0.00 0.00 0.00 0.00 0.00 0.00 0.00 0.00 0.00 0.00 0.00 0.00 0.00 0.00 0.00 0.00 0.00 0.00 0.00 0.00 0.00 0.00 0.00 0.00 0.00 0.00 0.00 0.00
0.00 0.00 0.00 0.00 0.00 0.00 0.00 0.00 0.00 0.00 0.00 0.00 0.00 0.00 0.00 0.00 0.00 0.00 0.00 0.00 0.00 0.00 0.00 0.00 0.00 0.00 0.00 0.00 0.00 0.00 0.00 0.00 0.00 0.00 0.00 0.00 0.00 0.00 0.00 0.00 0.00 0.00 0.00 0.00
0.00 0.00 0.00 0.00 0.00 0.00 0.00 0.00 0.00 0.00 0.00 0.00 0.00 0.00 0.00 0.00 0.00 0.00 0.00 0.00 0.00 0.00 0.00 0.00 0.00 0.00 0.00 0.00 0.00 0.00 0.00 0.00 0.00 0.00 0.00 0.00 0.00 0.00 0.00 0.00 0.00 0.00 0.00 0.00
0.00 0.00 0.00 0.00 0.00 0.00 0.00 0.00 0.00 0.00 0.00 0.00 0.00 0.00 0.00 0.00 0.00 0.00 0.00 0.00 0.00 0.00 0.00 0.00 0.00 0.00 0.00 0.00 0.00 0.00 0.00 0.00 0.00 0.00 0.00 0.00 0.00 0.00 0.00 0.00 0.00 0.00 0.00 0.00
0.00 0.00 0.00 0.00 0.00 0.00 0.00 0.00 0.00 0.00 0.00 0.00 0.00 0.00 0.00 0.00 0.00 0.00 0.00 0.00 0.00 0.00 0.00 0.00 0.00 0.00 0.00 0.00 0.00 0.00 0.00 0.00 0.00 0.00 0.00 0.00 0.00 0.00 0.00 0.00 0.00 0.00 0.00 0.00
0.00 0.00 0.00 0.00 0.00 0.00 0.00 0.00 0.00 0.00 0.00 0.00 0.00 0.00 0.00 0.00 0.00 0.00 0.00 0.00 0.00 0.00 0.00 0.00 0.00 0.00 0.00 0.00 0.00 0.00 0.00 0.00 0.00 0.00 0.00 0.00 0.00 0.00 0.00 0.00 0.00 0.00 0.00 0.00
0.00 0.00 0.00 0.00 0.00 0.00 0.00 0.00 0.00 0.00 0.00 0.00 0.00 0.00 0.00 0.00 0.00 0.00 0.00 0.00 0.00 0.00 0.00 0.00 0.00 0.00 0.00 0.00 0.00 0.00 0.00 0.00 0.00 0.00 0.00 0.00 0.00 0.00 0.00 0.00 0.00 0.00 0.00 0.00
0.00 0.00 0.00 0.00 0.00 0.00 0.00 0.00 0.00 0.00 0.00 0.00 0.00 0.00 0.00 0.00 0.00 0.00 0.00 0.00 0.00 0.00 0.00 0.00 0.00 0.00 0.00 0.00 0.00 0.00 0.00 0.00 0.00 0.00 0.00 0.00 0.00 0.00 0.00 0.00 0.00 0.00 0.00 0.00
0.00 0.00 0.00 0.00 0.00 0.00 0.00 0.00 0.00 0.00 0.00 0.00 0.00 0.00 0.00 0.00 0.00 0.00 0.00 0.00 0.00 0.00 0.00 0.00 0.00 0.00 0.00 0.00 0.00 0.00 0.00 0.00 0.00 0.00 0.00 0.00 0.00 0.00 0.00 0.00 0.00 0.00 0.00 0.00
0.00 0.00 0.00 0.00 0.00 0.00 0.00 0.00 0.00 0.00 0.00 0.00 0.00 0.00 0.00 0.00 0.00 0.00 0.00 0.00 0.00 0.00 0.00 0.00 0.00 0.00 0.00 0.00 0.00 0.00 0.00 0.00 0.00 0.00 0.00 0.00 0.00 0.00 0.00 0.00 0.00 0.00 0.00 0.00
0.00 0.00 0.00 0.00 0.00 0.00 0.00 0.00 0.00 0.00 0.00 0.00 0.00 0.00 0.00 0.00 0.00 0.00 0.00 0.00 0.00 0.00 0.00 0.00 0.00 0.00 0.00 0.00 0.00 0.00 0.00 0.00 0.00 0.00 0.00 0.00 0.00 0.00 0.00 0.00 0.00 0.00 0.00 0.00
0.00 0.00 0.00 0.00 0.00 0.00 0.00 0.00 0.00 0.00 0.00 0.00 0.00 0.00 0.00 0.00 0.00 0.00 0.00 0.00 0.00 0.00 0.00 0.00 0.00 0.00 0.00 0.00 0.00 0.00 0.00 0.00 0.00 0.00 0.00 0.00 0.00 0.00 0.00 0.00 0.00 0.00 0.00 0.00
0.00 0.00 0.00 0.00 0.00 0.00 0.00 0.00 0.00 0.00 0.00 0.00 0.00 0.00 0.00 0.00 0.00 0.00 0.00 0.00 0.00 0.00 0.00 0.00 0.00 0.00 0.00 0.00 0.00 0.00 0.00 0.00 0.00 0.00 0.00 0.00 0.00 0.00 0.00 0.00 0.00 0.00 0.00 0.00
MSLP
1024.52 1025.02 1025.50 1025.95 1026.34 1026.62 1026.77 1026.77 1026.61 1026.28 1025.80 1025.20 1024.53 1023.82 1023.12 1022.45 1021.84 1021.30 1020.81 1020.37 1019.96 1019.57 1019.18 1018.78 1018.37 1017.96 1017.56 1017.17 1016.82 1016.51 1016.24 1016.02 1015.82 1015.66 1015.51 1015.39 1015.27 1015.17 1015.09 1015.01 1014.95 1014.91 1014.87 1014.83
1024.51 1024.93 1025.31 1025.64 1025.90 1026.06 1026.10 1026.01 1025.80 1025.46 1025.01 1024.49 1023.91 1023.32 1022.74 1022.19 1021.68 1021.22 1020.80 1020.41 1020.05 1019.69 1019.35 1019.00 1018.66 1018.31 1017.98 1017.67 1017.38 1017.11 1016.86 1016.64 1016.43 1016.24 1016.07 1015.91 1015.76 1015.63 1015.52 1015.43 1015.35 1015.28 1015.22 1015.16
1024.51 1024.81 1025.06 1025.26 1025.38 1025.43 1025.38 1025.25 1025.02 1024.71 1024.34 1023.92 1023.46 1023.00 1022.53 1022.09 1021.66 1021.25 1020.87 1020.51 1020.17 1019.84 1019.52 1019.22 1018.93 1018.66 1018.40 1018.16 1017.93 1017.71 1017.49 1017.28 1017.07 1016.87 1016.68 1016.49 1016.33 1016.18 1016.06 1015.95 1015.87 1015.79 1015.71 1015.62
1024.56 1024.71 1024.81 1024.86 1024.86 1024.80 1024.70 1024.54 1024.33 1024.09 1023.81 1023.50 1023.17 1022.83 1022.47 1022.11 1021.74 1021.37 1021.00 1020.64 1020.29 1019.97 1019.67 1019.40 1019.16 1018.95 1018.77 1018.60 1018.43 1018.27 1018.10 1017.91 1017.72 1017.52 1017.32 1017.14 1016.97 1016.82 1016.70 1016.60 1016.51 1016.42 1016.32 1016.20
1024.59 1024.59 1024.55 1024.46 1024.35 1024.21 1024.06 1023.90 1023.73 1023.56 1023.38 1023.19 1022.98 1022.74 1022.48 1022.18 1021.85 1021.50 1021.12 1020.75 1020.38 1020.05 1019.76 1019.51 1019.31 1019.16 1019.04 1018.94 1018.85 1018.75 1018.63 1018.49 1018.33 1018.15 1017.98 1017.81 1017.66 1017.53 1017.42 1017.32 1017.24 1017.14 1017.02 1016.87
1024.54 1024.41 1024.23 1024.04 1023.84 1023.64 1023.47 1023.32 1023.19 1023.10 1023.01 1022.92 1022.81 1022.67 1022.48 1022.23 1021.92 1021.57 1021.19 1020.79 1020.41 1020.06 1019.77 1019.54 1019.38 1019.28 1019.22 1019.19 1019.16 1019.13 1019.07 1018.99 1018.88 1018.74 1018.61 1018.47 1018.35 1018.25 1018.16 1018.08 1018.00 1017.90 1017.76 1017.57
1024.32 1024.09 1023.82 1023.55 1023.29 1023.07 1022.89 1022.76 1022.69 1022.66 1022.65 1022.65 1022.62 1022.54 1022.41 1022.20 1021.91 1021.57 1021.18 1020.77 1020.37 1020.02 1019.73 1019.51 1019.38 1019.31 1019.31 1019.34 1019.38 1019.41 1019.42 1019.40 1019.34 1019.27 1019.18 1019.09 1019.01 1018.94 1018.88 1018.82 1018.74 1018.63 1018.47 1018.25
1023.87 1023.58 1023.27 1022.97 1022.69 1022.47 1022.31 1022.22 1022.19 1022.22 1022.28 1022.34 1022.37 1022.35 1022.26 1022.08 1021.82 1021.48 1021.10 1020.69 1020.29 1019.94 1019.66 1019.46 1019.35 1019.32 1019.35 1019.43 1019.52 1019.61 1019.68 1019.72 1019.73 1019.71 1019.68 1019.64 1019.60 1019.57 1019.53 1019.48 1019.40 1019.28 1019.10 1018.86
1023.17 1022.87 1022.56 1022.28 1022.03 1021.84 1021.73 1021.69 1021.71 1021.79 1021.90 1022.00 1022.08 1022.10 1022.05 1021.90 1021.67 1021.36 1020.99 1020.61 1020.23 1019.89 1019.63 1019.44 1019.35 1019.34 1019.39 1019.50 1019.63 1019.76 1019.88 1019.97 1020.03 1020.07 1020.10 1020.10 1020.10 1020.10 1020.08 1020.03 1019.95 1019.82 1019.63 1019.37
1022.26 1021.99 1021.73 1021.50 1021.32 1021.21 1021.16 1021.18 1021.26 1021.39 1021.54 1021.68 1021.79 1021.85 1021.82 1021.71 1021.52 1021.25 1020.92 1020.57 1020.23 1019.92 1019.67 1019.50 1019.42 1019.41 1019.47 1019.59 1019.73 1019.88 1020.03 1020.16 1020.27 1020.35 1020.42 1020.47 1020.50 1020.52 1020.51 1020.47 1020.38 1020.24 1020.04 1019.78
1021.20 1021.00 1020.83 1020.69 1020.62 1020.60 1020.64 1020.74 1020.88 1021.06 1021.24 1021.42 1021.55 1021.63 1021.64 1021.57 1021.41 1021.19 1020.92 1020.62 1020.32 1020.05 1019.82 1019.66 1019.58 1019.56 1019.61 1019.71 1019.84 1019.99 1020.15 1020.30 1020.43 1020.55 1020.65 1020.73 1020.79 1020.82 1020.82 1020.77 1020.69 1020.55 1020.35 1020.09
1020.11 1019.99 1019.92 1019.91 1019.95 1020.05 1020.20 1020.38 1020.60 1020.82 1021.03 1021.23 1021.39 1021.49 1021.52 1021.49 1021.38 1021.22 1021.00 1020.76 1020.51 1020.27 1020.06 1019.91 1019.81 1019.77 1019.79 1019.85 1019.96 1020.09 1020.23 1020.38 1020.53 1020.66 1020.78 1020.88 1020.95 1021.00 1021.00 1020.97 1020.88 1020.75 1020.56 1020.33
1019.06 1019.03 1019.08 1019.19 1019.37 1019.59 1019.85 1020.12 1020.40 1020.66 1020.91 1021.12 1021.29 1021.40 1021.46 1021.46 1021.40 1021.29 1021.13 1020.94 1020.74 1020.53 1020.35 1020.19 1020.07 1019.99 1019.97 1019.99 1020.04 1020.14 1020.26 1020.39 1020.53 1020.68 1020.81 1020.93 1021.02 1021.07 1021.09 1021.07 1021.00 1020.88 1020.72 1020.54
1018.13 1018.18 1018.34 1018.58 1018.88 1019.22 1019.58 1019.93 1020.26 1020.57 1020.83 1021.05 1021.23 1021.35 1021.42 1021.45 1021.43 1021.36 1021.25 1021.11 1020.95 1020.78 1020.60 1020.44 1020.29 1020.18 1020.10 1020.06 1020.07 1020.12 1020.20 1020.31 1020.45 1020.59 1020.74 1020.87 1020.98 1021.05 1021.09 1021.09 1021.04 1020.96 1020.84 1020.70
1017.32 1017.46 1017.71 1018.06 1018.47 1018.91 1019.36 1019.77 1020.15 1020.48 1020.76 1020.98 1021.15 1021.28 1021.36 1021.40 1021.41 1021.38 1021.31 1021.22 1021.09 1020.94 1020.77 1020.60 1020.43 1020.28 1020.15 1020.06 1020.02 1020.02 1020.06 1020.15 1020.27 1020.41 1020.57 1020.71 1020.85 1020.95 1021.02 1021.04 1021.03 1020.99 1020.92 1020.85
1016.64 1016.85 1017.19 1017.63 1018.13 1018.64 1019.15 1019.61 1020.02 1020.36 1020.64 1020.85 1021.01 1021.13 1021.22 1021.27 1021.30 1021.30 1021.27 1021.21 1021.12 1020.99 1020.83 1020.66 1020.47 1020.28 1020.11 1019.98 1019.89 1019.84 1019.85 1019.91 1020.02 1020.16 1020.32 1020.48 1020.64 1020.77 1020.87 1020.94 1020.97 1020.98 1020.96 1020.95
1016.07 1016.34 1016.75 1017.25 1017.80 1018.37 1018.91 1019.40 1019.82 1020.16 1020.42 1020.63 1020.78 1020.89 1020.97 1021.04 1021.09 1021.11 1021.12 1021.09 1021.03 1020.92 1020.78 1020.61 1020.41 1020.21 1020.01 1019.84 1019.70 1019.62 1019.60 1019.64 1019.73 1019.86 1020.03 1020.20 1020.38 1020.54 1020.67 1020.78 1020.86 1020.91 1020.95 1020.99
1015.60 1015.92 1016.36 1016.90 1017.48 1018.07 1018.62 1019.10 1019.52 1019.85 1020.10 1020.29 1020.43 1020.54 1020.63 1020.71 1020.78 1020.83 1020.87 1020.88 1020.85 1020.78 1020.66 1020.50 1020.30 1020.09 1019.88 1019.68 1019.52 1019.41 1019.36 1019.37 1019.44 1019.56 1019.72 1019.90 1020.08 1020.26 1020.43 1020.57 1020.68 1020.78 1020.87 1020.95
1015.22 1015.56 1016.03 1016.57 1017.15 1017.72 1018.25 1018.72 1019.11 1019.42 1019.66 1019.85 1019.98 1020.10 1020.20 1020.30 1020.40 1020.50 1020.57 1020.62 1020.63 1020.59 1020.50 1020.37 1020.19 1019.98 1019.76 1019.56 1019.38 1019.24 1019.16 1019.14 1019.18 1019.28 1019.42 1019.59 1019.77 1019.96 1020.13 1020.29 1020.44 1020.57 1020.69 1020.82
1014.95 1015.30 1015.74 1016.26 1016.80 1017.33 1017.82 1018.26 1018.62 1018.91 1019.14 1019.32 1019.46 1019.60 1019.73 1019.86 1020.00 1020.13 1020.25 1020.35 1020.40 1020.41 1020.36 1020.25 1020.10 1019.91 1019.70 1019.48 1019.29 1019.14 1019.03 1018.97 1018.98 1019.04 1019.14 1019.28 1019.44 1019.62 1019.79 1019.96 1020.11 1020.27 1020.42 1020.57
1014.82 1015.13 1015.54 1015.99 1016.46 1016.93 1017.36 1017.74 1018.06 1018.33 1018.55 1018.74 1018.90 1019.06 1019.23 1019.40 1019.58 1019.76 1019.93 1020.07 1020.17 1020.22 1020.21 1020.14 1020.02 1019.85 1019.66 1019.45 1019.25 1019.08 1018.94 1018.85 1018.81 1018.82 1018.88 1018.97 1019.10 1019.24 1019.39 1019.55 1019.71 1019.87 1020.03 1020.20
1014.83 1015.09 1015.42 1015.78 1016.16 1016.54 1016.89 1017.21 1017.49 1017.73 1017.94 1018.13 1018.32 1018.51 1018.72 1018.93 1019.15 1019.38 1019.59 1019.77 1019.91 1020.00 1020.04 1020.01 1019.92 1019.78 1019.60 1019.40 1019.20 1019.02 1018.85 1018.73 1018.64 1018.60 1018.60 1018.65 1018.72 1018.82 1018.94 1019.07 1019.22 1019.38 1019.55 1019.73
1015.01 1015.18 1015.40 1015.66 1015.93 1016.20 1016.46 1016.70 1016.93 1017.14 1017.34 1017.54 1017.74 1017.96 1018.20 1018.44 1018.70 1018.95 1019.19 1019.41 1019.58 1019.70 1019.77 1019.77 1019.72 1019.61 1019.46 1019.28 1019.09 1018.90 1018.72 1018.56 1018.44 1018.35 1018.30 1018.28 1018.30 1018.35 1018.42 1018.53 1018.66 1018.81 1018.98 1019.17
1015.33 1015.40 1015.50 1015.63 1015.78 1015.94 1016.11 1016.28 1016.44 1016.62 1016.79 1016.99 1017.20 1017.42 1017.67 1017.93 1018.20 1018.46 1018.71 1018.94 1019.13 1019.27 1019.36 1019.39 1019.36 1019.29 1019.17 1019.02 1018.84 1018.66 1018.48 1018.31 1018.16 1018.03 1017.93 1017.86 1017.83 1017.83 1017.86 1017.93 1018.03 1018.16 1018.33 1018.53
1015.75 1015.71 1015.70 1015.71 1015.74 1015.79 1015.86 1015.95 1016.06 1016.18 1016.33 1016.50 1016.69 1016.91 1017.14 1017.39 1017.64 1017.89 1018.13 1018.34 1018.53 1018.67 1018.77 1018.82 1018.82 1018.78 1018.70 1018.58 1018.44 1018.28 1018.11 1017.95 1017.78 1017.63 1017.50 1017.40 1017.32 1017.27 1017.26 1017.30 1017.37 1017.48 1017.64 1017.83
1016.19 1016.06 1015.95 1015.86 1015.80 1015.76 1015.74 1015.75 1015.80 1015.87 1015.97 1016.10 1016.26 1016.44 1016.63 1016.84 1017.05 1017.26 1017.45 1017.63 1017.78 1017.91 1018.01 1018.06 1018.09 1018.08 1018.04 1017.97 1017.88 1017.76 1017.63 1017.48 1017.33 1017.18 1017.03 1016.90 1016.79 1016.71 1016.66 1016.66 1016.70 1016.79 1016.93 1017.11
1016.58 1016.40 1016.22 1016.06 1015.92 1015.80 1015.72 1015.68 1015.66 1015.68 1015.73 1015.81 1015.91 1016.03 1016.16 1016.30 1016.44 1016.58 1016.72 1016.84 1016.95 1017.05 1017.13 1017.19 1017.24 1017.26 1017.26 1017.24 1017.20 1017.14 1017.05 1016.94 1016.82 1016.68 1016.53 1016.39 1016.26 1016.15 1016.08 1016.04 1016.04 1016.10 1016.22 1016.38
Thickness
5658 5658 5652 5645 5639 5634 5624 5614 5604 5604 5603 5606 5609 5609 5610 5613 5616 5618 5619 5622 5624 5625 5627 5629 5632 5635 5638 5642 5645 5648 5650 5651 5652 5654 5655 5656 5656 5656 5656 5656 5656 5655 5655 5655
5659 5660 5655 5646 5643 5638 5632 5625 5618 5615 5613 5620 5620 5618 5617 5619 5621 5623 5624 5627 5629 5631 5632 5633 5634 5636 5639 5641 5643 5645 5646 5647 5648 5650 5650 5650 5650 5650 5650 5649 5648 5648 5647 5647
5650 5659 5653 5640 5646 5643 5639 5636 5629 5621 5624 5629 5625 5625 5625 5626 5627 5628 5630 5632 5633 5635 5636 5637 5638 5639 5640 5641 5643 5643 5644 5644 5645 5645 5645 5644 5645 5644 5643 5642 5641 5640 5639 5639
5652 5652 5639 5651 5663 5658 5649 5646 5643 5639 5638 5636 5633 5634 5634 5635 5634 5633 5635 5636 5637 5639 5640 5641 5642 5642 5643 5643 5642 5642 5641 5641 5641 5641 5640 5640 5639 5638 5637 5636 5634 5633 5632 5631
5651 5648 5652 5658 5665 5662 5651 5647 5652 5647 5645 5644 5642 5637 5634 5641 5642 5641 5642 5643 5643 5644 5645 5645 5645 5645 5644 5643 5642 5641 5640 5639 5638 5638 5637 5636 5635 5633 5632 5630 5628 5627 5625 5624
5660 5657 5652 5667 5675 5675 5661 5646 5658 5655 5650 5647 5642 5627 5631 5645 5648 5648 5649 5649 5649 5650 5649 5648 5648 5648 5646 5644 5642 5641 5640 5639 5638 5637 5635 5633 5631 5630 5628 5626 5624 5622 5619 5617
5666 5664 5667 5682 5682 5674 5648 5652 5664 5661 5656 5652 5644 5640 5645 5652 5653 5654 5654 5655 5655 5654 5652 5652 5652 5651 5648 5647 5645 5644 5643 5641 5638 5636 5634 5631 5629 5627 5625 5623 5620 5617 5614 5611
5667 5665 5670 5689 5682 5670 5670 5674 5671 5666 5663 5660 5657 5658 5658 5658 5657 5657 5657 5658 5659 5657 5656 5657 5657 5655 5652 5650 5650 5648 5645 5641 5638 5636 5634 5631 5628 5624 5622 5619 5616 5612 5609 5607
5686 5686 5699 5697 5694 5692 5687 5679 5674 5671 5670 5668 5664 5662 5662 5661 5660 5661 5661 5661 5661 5660 5660 5661 5661 5659 5657 5656 5654 5651 5646 5642 5639 5636 5632 5629 5626 5622 5619 5616 5613 5609 5606 5602
5697 5700 5704 5703 5702 5699 5694 5687 5682 5679 5676 5672 5668 5667 5665 5663 5663 5663 5663 5664 5664 5664 5663 5663 5664 5663 5662 5661 5659 5654 5648 5644 5640 5636 5632 5628 5625 5621 5618 5614 5610 5607 5604 5600
5701 5706 5705 5705 5705 5701 5696 5692 5687 5683 5680 5676 5673 5670 5668 5666 5666 5666 5666 5666 5667 5665 5665 5665 5666 5666 5665 5664 5661 5655 5650 5646 5641 5637 5633 5628 5624 5620 5617 5613 5610 5606 5602 5599
5706 5712 5707 5707 5709 5707 5700 5694 5690 5686 5682 5680 5677 5674 5672 5669 5669 5669 5669 5669 5669 5668 5668 5668 5668 5668 5667 5666 5663 5658 5652 5647 5643 5639 5634 5629 5625 5621 5618 5615 5612 5609 5606 5602
5731 5728 5722 5720 5714 5711 5705 5699 5695 5690 5686 5681 5680 5678 5676 5672 5672 5671 5671 5671 5670 5670 5671 5670 5670 5669 5669 5668 5665 5660 5655 5651 5646 5642 5637 5632 5628 5624 5620 5617 5615 5611 5608 5605
5738 5732 5724 5720 5716 5713 5709 5704 5699 5693 5689 5686 5682 5680 5677 5675 5673 5673 5672 5672 5673 5673 5673 5672 5671 5669 5670 5669 5666 5662 5658 5655 5650 5646 5642 5637 5633 5628 5624 5620 5616 5613 5610 5608
5736 5735 5729 5725 5720 5714 5711 5704 5697 5692 5689 5686 5684 5681 5678 5675 5674 5674 5675 5675 5674 5674 5673 5672 5671 5670 5671 5670 5667 5663 5660 5656 5653 5650 5646 5642 5638 5633 5629 5624 5620 5616 5612 5610
5734 5731 5727 5722 5718 5714 5709 5704 5698 5693 5690 5688 5685 5682 5681 5679 5677 5676 5676 5676 5673 5672 5672 5672 5671 5671 5671 5670 5668 5665 5662 5660 5657 5653 5649 5645 5641 5636 5631 5627 5623 5619 5616 5613
5727 5722 5720 5717 5716 5713 5710 5706 5702 5698 5693 5690 5687 5685 5682 5680 5677 5676 5675 5675 5674 5674 5673 5672 5672 5672 5673 5672 5669 5666 5664 5662 5661 5656 5652 5649 5645 5640 5636 5631 5627 5623 5620 5618
5735 5730 5726 5722 5718 5713 5710 5707 5704 5700 5696 5694 5691 5686 5683 5680 5677 5675 5675 5674 5673 5672 5672 5672 5672 5673 5673 5673 5671 5668 5666 5664 5661 5658 5655 5652 5649 5645 5640 5636 5632 5628 5625 5622
5731 5727 5724 5721 5718 5714 5710 5707 5704 5701 5699 5695 5691 5687 5684 5682 5679 5677 5676 5674 5671 5669 5671 5672 5673 5672 5672 5672 5671 5669 5667 5666 5664 5661 5659 5656 5653 5649 5645 5641 5637 5634 5630 5627
5726 5724 5721 5718 5716 5713 5709 5707 5704 5701 5698 5695 5690 5686 5683 5681 5679 5677 5675 5673 5672 5672 5672 5671 5671 5671 5671 5671 5671 5669 5668 5667 5666 5664 5661 5658 5655 5653 5650 5646 5643 5639 5636 5632
5719 5719 5717 5714 5712 5711 5709 5706 5702 5698 5696 5693 5689 5685 5683 5681 5679 5676 5673 5671 5674 5674 5672 5672 5670 5670 5669 5669 5669 5668 5668 5668 5667 5666 5664 5661 5659 5657 5654 5651 5648 5645 5642 5638
5711 5710 5710 5709 5707 5705 5704 5702 5699 5696 5693 5689 5687 5684 5681 5678 5676 5674 5673 5672 5674 5674 5671 5670 5669 5669 5668 5668 5667 5667 5667 5668 5668 5667 5665 5664 5662 5660 5658 5655 5652 5650 5647 5643
5697 5699 5700 5700 5700 5699 5698 5696 5694 5692 5689 5686 5684 5681 5678 5676 5673 5670 5669 5671 5672 5672 5670 5669 5669 5669 5669 5667 5666 5666 5666 5667 5668 5668 5667 5666 5665 5663 5661 5660 5657 5654 5651 5648
5681 5683 5686 5689 5689 5688 5686 5687 5687 5687 5685 5683 5681 5679 5676 5672 5669 5669 5670 5671 5671 5669 5667 5667 5667 5667 5667 5665 5664 5664 5665 5666 5667 5668 5668 5667 5666 5665 5663 5662 5660 5657 5655 5652
5663 5666 5669 5672 5673 5674 5677 5678 5677 5677 5676 5674 5674 5673 5672 5671 5669 5668 5667 5666 5666 5665 5663 5663 5664 5664 5663 5662 5662 5662 5663 5664 5665 5666 5667 5666 5666 5665 5664 5663 5661 5659 5657 5654
5644 5646 5650 5653 5656 5660 5662 5664 5664 5665 5664 5664 5664 5664 5664 5664 5664 5662 5661 5661 5661 5660 5659 5658 5658 5659 5658 5658 5659 5660 5661 5662 5663 5663 5664 5664 5664 5664 5663 5662 5661 5660 5658 5656
5625 5628 5632 5636 5640 5643 5646 5648 5650 5651 5653 5654 5655 5656 5656 5656 5656 5655 5654 5654 5653 5653 5653 5653 5653 5653 5653 5654 5654 5656 5657 5658 5659 5660 5661 5661 5661 5661 5661 5661 5660 5659 5658 5656